Location: Unspecified
(0.0000°N, 0.0000°E)
Time: 16:39:39
(UTC+00:00)

Vanguard 3 - All Passes

Search period start: 01 March 2015 00:00
Search period end: 11 March 2015 00:00
Orbit: 510 x 3273 km, 33.3° (Epoch: 28 February)

Date Brightness Start Highest point End Pass type
(mag) Time Alt. Az. Time Alt. Az. Time Alt. Az.
01 Mar - 01:09:47 10° SSW 01:23:21 24° SSE 01:34:07 10° ESE visible
01 Mar - 03:26:39 10° SW 03:41:44 51° SSE 03:50:31 10° ENE visible
01 Mar - 05:44:39 10° WSW 05:55:35 49° NW 06:01:43 10° NNE visible
01 Mar - 14:47:39 10° N 14:52:36 24° NE 15:00:21 10° E daylight
01 Mar - 16:57:04 10° WNW 17:05:15 79° SSW 17:20:19 10° SE daylight
01 Mar - 19:11:09 10° W 19:21:59 33° SSW 19:37:20 10° SE visible
01 Mar - 21:31:40 10° SW 21:43:05 19° S 21:55:16 10° SSE visible
01 Mar - 23:53:38 10° SSW 00:06:17 20° S 00:17:46 10° SE visible
02 Mar - 02:11:05 10° SW 02:26:45 37° SSE 02:37:14 10° E visible
02 Mar - 04:28:20 10° SW 04:42:45 87° NW 04:50:28 10° NE visible
02 Mar - 06:49:20 10° W 06:55:04 17° NW 06:58:57 10° N daylight
02 Mar - 15:45:32 10° NW 15:52:07 63° NE 16:04:12 10° ESE daylight
02 Mar - 17:57:26 10° W 18:06:39 44° SSW 18:21:47 10° SE daylight
02 Mar - 20:14:52 10° WSW 20:25:45 22° SSW 20:38:51 10° SSE visible
02 Mar - 22:37:00 10° SSW 22:48:32 18° S 23:00:08 10° SE visible
03 Mar - 00:55:34 10° SSW 01:10:42 28° SSE 01:22:37 10° ESE visible
03 Mar - 03:12:23 10° SW 03:28:53 62° SSE 03:38:23 10° ENE visible
03 Mar - 05:31:22 10° WSW 05:42:37 40° NW 05:49:07 10° NNE visible
03 Mar - 14:34:53 10° NNW 14:39:46 29° NE 14:47:36 10° E daylight
03 Mar - 16:44:50 10° WNW 16:52:24 64° SSW 17:06:15 10° SE daylight
03 Mar - 18:59:32 10° WSW 19:09:21 27° SSW 19:22:55 10° SSE visible
03 Mar - 21:20:08 10° SW 21:30:38 18° S 21:42:07 10° SSE visible
03 Mar - 23:39:59 10° SSW 23:53:42 23° SSE 00:06:19 10° ESE visible
04 Mar - 01:56:43 10° SW 02:13:54 45° SSE 02:25:17 10° E visible
04 Mar - 04:14:27 10° WSW 04:29:43 74° NW 04:38:01 10° NE visible
04 Mar - 06:37:12 10° WNW 06:42:18 15° NW 06:45:49 10° N daylight
04 Mar - 15:33:05 10° NW 15:39:14 78° NE 15:50:37 10° ESE daylight
04 Mar - 17:45:35 10° W 17:54:01 35° SSW 18:07:23 10° SE daylight
04 Mar - 20:03:39 10° SW 20:13:16 19° S 20:24:47 10° SSE visible
04 Mar - 22:24:18 10° SSW 22:36:01 19° S 22:48:17 10° SE visible
05 Mar - 00:41:21 10° SSW 00:57:52 33° SSE 01:10:51 10° E visible
05 Mar - 02:58:09 10° SW 03:15:50 75° SSE 03:26:02 10° ENE visible
05 Mar - 05:18:10 10° WSW 05:29:37 34° NW 05:36:24 10° NNE visible
05 Mar - 14:22:11 10° NNW 14:26:56 36° NE 14:34:44 10° ESE daylight
05 Mar - 16:32:45 10° WNW 16:39:44 50° SSW 16:52:05 10° SE daylight
05 Mar - 18:48:11 10° WSW 18:56:52 22° SSW 19:08:25 10° SSE visible
05 Mar - 21:08:27 10° SSW 21:18:13 17° S 21:29:15 10° SE visible
05 Mar - 23:26:15 10° SSW 23:40:57 26° SSE 23:54:42 10° ESE visible
06 Mar - 01:42:25 10° SW 02:00:50 53° SSE 02:13:05 10° ENE visible
06 Mar - 04:00:40 10° WSW 04:16:32 62° NW 04:25:26 10° NE visible
06 Mar - 06:25:24 10° WNW 06:29:35 13° NW 06:32:27 10° NNW daylight
06 Mar - 13:12:55 10° NNE 13:14:55 13° NE 13:17:35 10° ENE daylight
06 Mar - 15:20:46 10° WNW 15:26:29 82° SW 15:36:57 10° SE daylight
06 Mar - 17:33:58 10° WSW 17:41:31 28° SSW 17:52:52 10° SSE daylight
06 Mar - 19:52:33 10° SW 20:00:52 16° S 20:10:46 10° SSE visible
06 Mar - 22:11:20 10° SSW 22:23:26 20° SSE 22:36:29 10° SE visible
07 Mar - 00:27:11 10° SW 00:44:51 39° SSE 00:58:50 10° E visible
07 Mar - 02:44:02 10° SW 03:02:35 87° SE 03:13:33 10° NE visible
07 Mar - 05:05:06 10° W 05:16:34 29° NW 05:23:35 10° NNE visible
07 Mar - 14:09:35 10° NW 14:14:10 46° NE 14:21:44 10° ESE daylight
07 Mar - 16:20:49 10° W 16:27:13 38° SSW 16:37:52 10° SE daylight
07 Mar - 18:37:08 10° SW 18:44:28 18° S 18:53:49 10° SSE visible
07 Mar - 20:56:30 10° SSW 21:05:46 16° S 21:16:39 10° SE visible
07 Mar - 23:12:26 10° SSW 23:28:02 29° SSE 23:42:51 10° ESE visible
08 Mar - 01:28:12 10° SW 01:47:34 62° SSE 02:00:41 10° ENE visible
08 Mar - 03:46:57 10° WSW 04:03:14 53° NW 04:12:42 10° NE visible
08 Mar - 06:14:10 10° NW 06:16:54 11° NW 06:18:35 10° NNW daylight
08 Mar - 12:59:32 10° N 13:02:15 16° NE 13:05:49 10° E daylight
08 Mar - 15:08:35 10° WNW 15:13:52 61° SSW 15:23:13 10° SE daylight
08 Mar - 17:22:37 10° WSW 17:29:08 21° SSW 17:38:14 10° SSE daylight
08 Mar - 19:41:33 10° SSW 19:48:32 14° S 19:56:53 10° SSE visible
08 Mar - 21:58:09 10° SSW 22:10:42 22° SSE 22:24:40 10° ESE visible
09 Mar - 00:13:04 10° SW 00:31:37 45° SSE 00:46:35 10° E visible
09 Mar - 02:29:59 10° SW 02:49:10 82° NW 03:00:53 10° NE visible
09 Mar - 04:52:09 10° W 05:03:30 26° NW 05:10:39 10° NNE visible
09 Mar - 13:57:04 10° NW 14:01:27 64° NE 14:08:37 10° ESE daylight
09 Mar - 16:09:07 10° W 16:14:49 28° SSW 16:23:34 10° SSE daylight
09 Mar - 18:26:29 10° SW 18:32:11 14° S 18:39:02 10° SSE visible
09 Mar - 20:44:13 10° SSW 20:53:17 16° SSE 21:04:18 10° SE visible
09 Mar - 22:58:38 10° SSW 23:14:55 33° SSE 23:30:47 10° E visible
10 Mar - 01:14:04 10° SW 01:34:07 72° SE 01:48:06 10° ENE visible
10 Mar - 03:33:22 10° WSW 03:49:52 46° NW 03:59:52 10° NNE visible
10 Mar - 12:46:28 10° NNW 12:49:34 22° NE 12:53:40 10° E daylight
10 Mar - 14:56:31 10° W 15:01:23 43° SSW 15:09:25 10° SE daylight
10 Mar - 17:11:42 10° SW 17:16:52 16° SSW 17:23:23 10° SSE daylight
10 Mar - 19:30:31 10° SSW 19:36:13 13° S 19:43:10 10° SSE visible
10 Mar - 21:44:50 10° SSW 21:57:51 24° SSE 22:12:43 10° ESE visible
